Rockford, IL

11:27 AM CST on December 08, 2016 (GMT -0600)
Greater Rockford

Weather History for KRFD - December, 2012

Change the Weather History Date:

Thursday, December 6, 2012

  Actual Average Record
Temperature  
Mean Temperature 39 °F 28 °F  
Max Temperature 46 °F 36 °F 60 °F (1980)
Min Temperature 32 °F 21 °F -10 °F (1964)
Degree Days  
Heating Degree Days 26 36  
Month to date heating degree days 117 212  
Since 1 July heating degree days 1476 1547  
Cooling Degree Days 0 0  
Month to date cooling degree days 0 0  
Year to date cooling degree days 1227 820  
Moisture  
Dew Point 33 °F    
Average Humidity 76    
Maximum Humidity 82    
Minimum Humidity 70    
Precipitation  
Precipitation 0.01 in 0.08 in 0.83 in (1998)
Month to date precipitation 0.49 0.46  
Year to date precipitation 21.35 34.72  
Snow  
Snow 0.00 in 0.30 in 6.90 in (1994)
Month to date snowfall 0.0 1.8  
Since 1 July snowfall T 3.6  
Snow Depth 0.00 in    
Sea Level Pressure  
Sea Level Pressure 30.03 in    
Wind  
Wind Speed 9 mph (South)    
Max Wind Speed 17 mph    
Max Gust Speed 21 mph    
Visibility 10 miles    
Events Rain    
T = Trace of Precipitation, MM = Missing Value Source: NWS Daily Summary

Daily Weather History Graph

Daily Weather History Graph

Search for Another Location

Airport or City:

Trip Planner

Search our weather history database for the weather conditions in past years. The results will help you decide how hot, cold, wet, or windy it might be!

Date:

Astronomy

Dec. 06, 2012 Rise Set
Actual Time 7:10 AM CST 4:24 PM CST
Civil Twilight 6:39 AM CST 4:55 PM CST
Nautical Twilight 6:04 AM CST 5:30 PM CST
Astronomical Twilight 5:30 AM CST 6:04 PM CST
Moon No Moon Rise 11:57 AM CST (12/6)
Length of Visible Light 10h 16m
Length of Day
9h 13m
Waning Gibbous, 49% of the Moon is Illuminated
Dec 6
Waning Gibbous
Dec 13
New
Dec 19
First Quarter
Dec 28
Full
Jan 4
Last Quarter

Hourly Weather History & Observations

Time (CST) Temp. Windchill Dew Point Humidity Pressure Visibility Wind Dir Wind Speed Gust Speed Precip Events Conditions
12:54 AM 33.1 °F 26.1 °F 28.0 °F 82% 30.21 in 10.0 mi SSE 8.1 mph - N/A   Overcast
1:54 AM 34.0 °F 25.5 °F 28.0 °F 79% 30.20 in 10.0 mi SSE 11.5 mph - N/A   Overcast
2:54 AM 34.0 °F 25.5 °F 28.0 °F 79% 30.18 in 10.0 mi SSE 11.5 mph - N/A   Overcast
3:54 AM 34.0 °F 25.5 °F 28.0 °F 79% 30.16 in 10.0 mi SSE 11.5 mph - N/A   Overcast
4:54 AM 33.1 °F 23.4 °F 28.9 °F 85% 30.13 in 10.0 mi SSE 13.8 mph - N/A   Overcast
5:54 AM 34.0 °F 26.6 °F 28.9 °F 82% 30.13 in 10.0 mi SSE 9.2 mph - N/A   Overcast
6:54 AM 35.1 °F 28.6 °F 28.9 °F 78% 30.12 in 10.0 mi SSE 8.1 mph - N/A   Overcast
7:54 AM 35.1 °F 25.9 °F 30.0 °F 82% 30.12 in 10.0 mi South 13.8 mph - N/A   Overcast
8:54 AM 36.0 °F 28.0 °F 30.0 °F 79% 30.11 in 10.0 mi South 11.5 mph - N/A   Overcast
9:54 AM 37.9 °F 29.6 °F 32.0 °F 79% 30.09 in 10.0 mi South 13.8 mph - N/A   Overcast
10:54 AM 39.9 °F 31.8 °F 33.1 °F 77% 30.06 in 10.0 mi South 15.0 mph - N/A   Overcast
11:54 AM 42.1 °F 35.2 °F 34.0 °F 73% 30.01 in 10.0 mi South 12.7 mph - N/A   Overcast
12:54 PM 45.0 °F 39.3 °F 35.1 °F 68% 29.97 in 10.0 mi South 11.5 mph - N/A   Overcast
1:54 PM 45.0 °F 38.5 °F 35.1 °F 68% 29.94 in 10.0 mi South 13.8 mph - 0.00 in Rain Light Rain
2:54 PM 46.0 °F 40.6 °F 36.0 °F 68% 29.95 in 10.0 mi SSW 11.5 mph - 0.00 in   Overcast
3:54 PM 45.0 °F 40.1 °F 36.0 °F 71% 29.94 in 10.0 mi South 9.2 mph - N/A   Overcast
4:54 PM 44.1 °F 38.6 °F 37.0 °F 76% 29.93 in 10.0 mi South 10.4 mph - 0.00 in   Overcast
5:54 PM 45.0 °F - 36.0 °F 71% 29.94 in 10.0 mi Calm Calm - N/A   Overcast
6:54 PM 44.1 °F - 36.0 °F 73% 29.95 in 10.0 mi Calm Calm - N/A   Overcast
7:54 PM 43.0 °F - 37.0 °F 80% 29.96 in 10.0 mi Calm Calm - N/A   Overcast
8:54 PM 43.0 °F 38.8 °F 37.0 °F 80% 29.94 in 10.0 mi South 6.9 mph - N/A   Overcast
9:54 PM 43.0 °F - 37.0 °F 80% 29.95 in 10.0 mi Calm Calm - N/A   Overcast
10:54 PM 44.1 °F - 37.0 °F 76% 29.95 in 10.0 mi Calm Calm - 0.00 in Rain Light Rain
11:54 PM 43.0 °F 39.5 °F 39.0 °F 86% 29.96 in 8.0 mi WNW 5.8 mph - 0.01 in Rain Light Rain